Location: Doschendorf
(50.0069°N, 11.0602°E)
Time: 21:20:46
(UTC+00:00)

USA 238 - Pass Details

Date: 17 November 2019
Orbit: 1023 x 1189 km, 63.4° (Epoch: 29 November)

Event Time Altitude Azimuth Distance (km) Brightness Sun altitude
Rises 19:15:09 0° 316° (NW) 3,928 7.4 -35.9°
Reaches altitude 10° 19:17:47 10° 316° (NW) 2,991 6.6 -36.3°
Enters shadow 19:23:13 56° 308° (NW) 1,338 4.3 -37.1°
